星链-4067 (STARLINK-4067 )

导读

STARLINK-4067是美国SpaceX公司星链星座的一颗低轨通信卫星,于2022年5月18日发射升空,属于星链组网的量产卫星。它运行于近地轨道,搭载Ku/Ka波段相控阵通信载荷与氪霍尔推进器,具备自主避撞能力,为全球偏远地区提供低时延高速宽带互联网服务,服役寿命末期会主动离轨再入大气层销毁。

基本信息
目录编号:
52668
目录名称:
STARLINK-4067
国际标识:
2022-053N
轨道中心:
EARTH
卫星名称:
星链-4067
卫星全名:
星链-4067 (STARLINK-4067 )
卫星状态:
在轨 (已飞行1578 天)
发射日期:
2022-05-18 UTC
国别 :
美国 (US)
星等 :
--
该卫星已列入 空间交会检测服务 Space Conjunction Data Service (SCDS) ,当前飞行风险评估等级: 无高风险
轨道信息
数据来源 国际轨道数据
星历时间: 2026-09-12T09:51:30+0800
6小时前
查看轨道信息
半长轴: 6848.872km
偏心率: 0.0000934
轨道倾角: 53.161°
近地点辐角 83.123°
升交点赤经 25.003°
平近点角 276.987°
近地点: 470.095km
远地点: 471.375km
周期: 94.013分钟
每日圈数: 15.317019
详细信息
固有亮度:
5
最大亮度:
2.5
卫星平台:
Starlink v1.5
覆盖范围:
全球
运营商:
太空探索技术公司
运营商所在国:
美国
制造商(研发单位):
太空探索技术公司
制造商所在国:
美国
使用方式:
暂无
卫星简介
星链(Starlink)计划是由太空探索技术公司(SpaceX)提出的一个巨型低轨卫星互联网星座项目,计划在2019年至2024年间在太空搭建由约1.2万颗卫星组成的“星链”网络,其中1584颗将部署在地球上空550千米处的近地轨道,并从2020年开始工作。该卫星仍在工作。
2D轨道图
3D轨道图
轨道高度分析图
轨道倾角分析图
轨道综合分析图
查看轨道综合分析图
交会数据列表
事件ID 空间交会对象 最接近时刻(TCA) 交会距离 交会风险概率(CRP) 交会风险指数(CRI) 操作
CDM_260913-160005-266806-264222
2026-09-13T
16:00:57+0000
0.596 km
远距离
8.53201E-5 中风险 0.74
CDM_260913-173505-266806-264222
2026-09-13T
17:35:00+0000
0.745 km
远距离
4.394165E-5 中风险 0.68
CDM_260914-170505-266806-264221
2026-09-14T
17:05:49+0000
0.802 km
远距离
3.34712E-5 中风险 0.65
CDM_260914-183905-266806-264221
2026-09-14T
18:39:53+0000
0.809 km
远距离
3.244536E-5 中风险 0.65
CDM_260913-142605-266806-264222
2026-09-13T
14:26:54+0000
0.825 km
远距离
3.185575E-5 中风险 0.65
CDM_260914-153105-266806-264221
2026-09-14T
15:31:46+0000
1.039 km
极远距离
1.396757E-5 中风险 0.58
CDM_260913-190905-266806-264222
2026-09-13T
19:09:03+0000
1.053 km
极远距离
1.375903E-5 中风险 0.58
CDM_260913-125205-266806-264222
2026-09-13T
12:52:50+0000
1.310 km
极远距离
6.561367E-6 低风险 0.51
CDM_260914-135705-266806-264221
2026-09-14T
13:57:42+0000
1.336 km
极远距离
5.910749E-6 低风险 0.5
CDM_260913-204305-266806-264221
2026-09-13T
20:43:06+0000
1.367 km
极远距离
5.61493E-6 低风险 0.5
与全量物体交会距离演化趋势
与全量物体交会风险概率演化趋势